Regional Weather Roundup
Issued by NWS Cleveland, OH

Home | Current Version | Previous Version | Text Only | Print | Product List | Glossary Off
Versions: 1 2 3 4 5 6 7 8 9 10 11 12 13 14 15 16 17 18 19 20 21 22 23 24 25 26 27 28 29 30 31 32 33 34 35 36 37 38 39 40 41 42 43 44 45 46 47 48 49 50

000
ASUS41 KCLE 242010
RWRCLE
OHIO REGIONAL WEATHER ROUNDUP
NATIONAL WEATHER SERVICE CLEVELAND, OH
400 PM EDT TUE MAY 24 2016

NOTE: "FAIR" INDICATES FEW OR NO CLOUDS BELOW 12,000 FEET WITH NO
SIGNIFICANT WEATHER AND/OR OBSTRUCTIONS TO VISIBILITY.

OHZ001>008-015>018-024>027-034-035-043-044-242100-
   NORTHWEST OHIO

CITY           SKY/WX    TMP DP  RH WIND       PRES   REMARKS
DEFIANCE       SUNNY     84  46  26 SW12G17   30.03F
FINDLAY        SUNNY     82  39  21 SW9       30.04S
TOLEDO EXPRESS SUNNY     84  42  22 SW15G21   30.02S
TOLEDO EXEC    SUNNY     84  43  23 W14G20    30.03S
LIMA           SUNNY     80  43  26 W9        30.06S
$$

OHZ009>014-019>023-028>033-038-089-242100-
   NORTHEAST OHIO

CITY           SKY/WX    TMP DP  RH WIND       PRES   REMARKS
CLE-HOPKINS    SUNNY     82  44  26 VRB5      30.05F
CLE-LAKEFRONT  SUNNY     73  53  49 NW8       30.04F
CUY CO. ARPT   SUNNY     81  37  21 W12       30.06F
LORAIN-ELYRIA  SUNNY     80  42  25 MISG      30.05F
ASHTABULA      SUNNY     78  36  21 W9        30.06F
AKRON-CANTON   MOSUNNY   79  45  29 W10G18    30.06F
WOOSTER        SUNNY     79  47  32 W7        30.06F
MANSFIELD      SUNNY     80  46  30 W9        30.07F
YOUNGSTOWN     MOSUNNY   79  44  28 NW13G22   30.05F
$$

OHZ042-051>053-060>062-070>072-077>081-242100-
  SOUTHWEST OHIO

CITY           SKY/WX    TMP DP  RH WIND       PRES   REMARKS
CINC-COVINGTON MOSUNNY   80  45  28 SW8       30.08F
CINC-LUNKEN    SUNNY     79  51  37 S10       30.07F
HAMILTON       SUNNY     81  47  30 VRB6      30.08F
DAYTON         MOSUNNY   79  48  33 SW7       30.09S
WRIGHT-PAT AFB SUNNY     79  48  34 S6        30.08S
DAYTON GENERAL SUNNY     79  47  32 SW10      30.08S
WILMINGTON     SUNNY     78  50  37 S7        30.08F
$$

OHZ036-037-039>041-045>050-054>059-063>069-073>076-082>088-242100-
  CENTRAL AND SOUTHEAST OHIO

CITY           SKY/WX    TMP DP  RH WIND       PRES   REMARKS
COLUMBUS       MOSUNNY   79  49  34 VRB6      30.07F
OSU AIRPORT    SUNNY     80  50  34 SW8       30.07S
BOLTON FIELD   SUNNY     79  54  41 SW12G18   30.08F
RICKENBACK AFB SUNNY     79  53  39 NW3       30.07F
NEWARK         SUNNY     80  50  34 VRB7      30.07F
MARION         SUNNY     81  44  27 SW9       30.07F
LANCASTER      SUNNY     79  51  37 VRB3      30.08F
ZANESVILLE     MOSUNNY   80  51  36 W7        30.08F
NEW PHILLY     MOSUNNY   81  47  30 W7        30.07F
$$




USA.gov is the U.S. government's official web portal to all federal, state and local government web resources and services.